Nantucket, MA

10:04 PM EDT on June 25, 2017 (GMT -0400)
Nantucket Memorial

Weather History for KACK - June, 2012

Change the Weather History Date:

Monday, June 18, 2012

  Actual Average Record
Temperature  
Mean Temperature 58 °F -  
Max Temperature 64 °F 69 °F 82 °F (2014)
Min Temperature 48 °F 55 °F 45 °F (1973)
Degree Days  
Heating Degree Days 7    
Growing Degree Days 8 (Base 50)    
Moisture  
Dew Point 54 °F    
Average Humidity 90    
Maximum Humidity 100    
Minimum Humidity 72    
Precipitation  
Precipitation 0.00 in - - ()
Sea Level Pressure  
Sea Level Pressure 30.14 in    
Wind  
Wind Speed 7 mph (ENE)    
Max Wind Speed 12 mph    
Max Gust Speed -    
Visibility 8 miles    
Events      
Averages and records for this station are not official NWS values.
T = Trace of Precipitation, MM = Missing Value Source: NWS Daily Summary

Daily Weather History Graph

Daily Weather History Graph

Search for Another Location

Airport or City:

Trip Planner

Search our weather history database for the weather conditions in past years. The results will help you decide how hot, cold, wet, or windy it might be!

Date:

Astronomy

Jun. 18, 2012 Rise Set
Actual Time 5:06 AM EDT 8:16 PM EDT
Civil Twilight 4:33 AM EDT 8:49 PM EDT
Nautical Twilight 3:49 AM EDT 9:33 PM EDT
Astronomical Twilight 2:58 AM EDT 10:25 PM EDT
Moon 4:19 AM EDT (6/18) 7:31 PM EDT (6/18)
Length of Visible Light 16h 16m
Length of Day
15h 09m
Waning Crescent, 1% of the Moon is Illuminated
Jun 18
Waning Crescent
Jun 19
New
Jun 26
First Quarter
Jul 3
Full
Jul 10
Last Quarter

Hourly Weather History & Observations

Time (EDT) Temp. Dew Point Humidity Pressure Visibility Wind Dir Wind Speed Gust Speed Precip Events Conditions
12:34 AM 53.6 °F 53.6 °F 100% 30.15 in 3.0 mi North 3.5 mph - N/A   Overcast
12:43 AM 53.6 °F 53.6 °F 100% 30.15 in 2.5 mi NNE 4.6 mph - N/A   Overcast
12:53 AM 54.0 °F 54.0 °F 100% 30.15 in 2.5 mi NE 4.6 mph - N/A   Overcast
1:53 AM 55.0 °F 54.0 °F 96% 30.14 in 1.5 mi NNE 8.1 mph - N/A   Overcast
2:33 AM 55.4 °F 55.4 °F 100% 30.14 in 2.5 mi NNE 6.9 mph - N/A   Overcast
2:53 AM 55.0 °F 55.0 °F 100% 30.14 in 2.5 mi NNE 8.1 mph - N/A   Overcast
3:06 AM 55.4 °F 55.4 °F 100% 30.13 in 4.0 mi NNE 6.9 mph - N/A   Overcast
3:39 AM 55.4 °F 55.4 °F 100% 30.13 in 6.0 mi NE 8.1 mph - N/A   Overcast
3:53 AM 55.9 °F 55.0 °F 97% 30.12 in 6.0 mi NE 6.9 mph - N/A   Overcast
4:05 AM 55.4 °F 55.4 °F 100% 30.12 in 7.0 mi NE 6.9 mph - N/A   Overcast
4:53 AM 55.9 °F 55.0 °F 97% 30.13 in 8.0 mi NE 6.9 mph - N/A   Overcast
5:04 AM 55.4 °F 55.4 °F 100% 30.12 in 8.0 mi NE 8.1 mph - N/A   Overcast
5:27 AM 55.4 °F 55.4 °F 100% 30.13 in 7.0 mi NE 6.9 mph - N/A   Overcast
5:53 AM 55.9 °F 55.0 °F 97% 30.13 in 8.0 mi NE 9.2 mph - N/A   Mostly Cloudy
6:17 AM 57.2 °F 55.4 °F 94% 30.13 in 8.0 mi NE 8.1 mph - N/A   Mostly Cloudy
6:29 AM 57.2 °F 55.4 °F 94% 30.13 in 9.0 mi NE 8.1 mph - N/A   Overcast
6:53 AM 57.9 °F 55.0 °F 90% 30.13 in 9.0 mi ENE 11.5 mph - N/A   Overcast
7:53 AM 59.0 °F 55.0 °F 87% 30.14 in 10.0 mi NE 8.1 mph - N/A   Overcast
8:12 AM 59.0 °F 55.4 °F 88% 30.14 in 10.0 mi ENE 9.2 mph - N/A   Overcast
8:44 AM 59.0 °F 55.4 °F 88% 30.14 in 10.0 mi ENE 9.2 mph - N/A   Overcast
8:53 AM 60.1 °F 55.9 °F 86% 30.14 in 10.0 mi ENE 8.1 mph - N/A   Overcast
9:53 AM 62.1 °F 55.9 °F 80% 30.14 in 10.0 mi ENE 9.2 mph - N/A   Overcast
10:36 AM 62.6 °F 55.4 °F 77% 30.15 in 10.0 mi NNE 10.4 mph - N/A   Overcast
10:53 AM 61.0 °F 55.9 °F 83% 30.16 in 10.0 mi NE 8.1 mph - N/A   Overcast
11:26 AM 62.6 °F 55.4 °F 77% 30.16 in 10.0 mi NE 10.4 mph - N/A   Overcast
11:53 AM 63.0 °F 57.0 °F 81% 30.16 in 10.0 mi ENE 10.4 mph - N/A   Overcast
12:53 PM 63.0 °F 55.0 °F 75% 30.17 in 10.0 mi East 10.4 mph - N/A   Overcast
1:53 PM 64.0 °F 55.9 °F 75% 30.16 in 10.0 mi East 10.4 mph - N/A   Overcast
2:53 PM 63.0 °F 55.9 °F 78% 30.16 in 10.0 mi ESE 10.4 mph - N/A   Mostly Cloudy
3:53 PM 62.1 °F 55.0 °F 78% 30.16 in 10.0 mi ESE 9.2 mph - N/A   Overcast
4:53 PM 61.0 °F 54.0 °F 78% 30.16 in 10.0 mi ESE 8.1 mph - N/A   Overcast
5:53 PM 60.8 °F 51.8 °F 72% 30.15 in 10.0 mi ESE 6.9 mph - N/A   Mostly Cloudy
6:53 PM 57.9 °F 53.1 °F 84% 30.14 in 10.0 mi ESE 9.2 mph - N/A   Clear
7:53 PM 55.0 °F 53.1 °F 93% 30.14 in 10.0 mi East 5.8 mph - N/A   Clear
8:53 PM 53.1 °F 52.0 °F 96% 30.14 in 10.0 mi Calm Calm - N/A   Clear
9:53 PM 53.1 °F 50.0 °F 89% 30.17 in 10.0 mi ESE 3.5 mph - N/A   Clear
10:53 PM 52.0 °F 48.9 °F 89% 30.17 in 10.0 mi Calm Calm - N/A   Clear
11:53 PM 48.9 °F 48.9 °F 100% 30.18 in 10.0 mi SSE 6.9 mph - N/A   Clear